Location: Unspecified
(56.5167°N, 0.0000°E)
Time: 17:10:29
(UTC+02:00)

Cosmos 1674 - Visible Passes

Search period start: 21 October 2014 00:00
Search period end: 30 October 2014 23:00
Orbit: 514 x 540 km, 82.5° (Epoch: 21 October)

Date Brightness Start Highest point End Pass type
(mag) Time Alt. Az. Time Alt. Az. Time Alt. Az.
21 Oct 4.3 07:14:34 10° SSE 07:18:17 40° E 07:22:02 10° NNE visible
22 Oct 4.4 07:03:18 10° SSE 07:06:58 37° E 07:10:40 10° NNE visible
23 Oct 4.6 06:52:01 10° SSE 06:55:37 35° E 06:59:16 10° NNE visible
24 Oct 4.7 06:40:43 10° SSE 06:44:16 32° E 06:47:51 10° NNE visible
24 Oct 6.6 19:43:17 10° WNW 19:43:50 10° WNW 19:44:23 10° W visible
25 Oct 4.8 06:29:25 10° SSE 06:32:55 30° E 06:36:25 10° NNE visible
25 Oct 3.4 08:05:08 10° SW 08:08:49 36° WNW 08:12:32 10° N visible
25 Oct 6.3 19:31:22 10° WNW 19:32:29 11° W 19:33:37 10° W visible
26 Oct 4.9 05:18:07 10° SSE 05:21:32 28° E 05:24:58 10° NNE visible
26 Oct 3.3 06:53:39 10° SW 06:57:23 39° WNW 07:01:09 10° N visible
26 Oct 6.2 18:19:38 10° WNW 18:21:07 12° W 18:22:36 10° WSW visible
27 Oct 5.0 05:06:48 10° SSE 05:10:08 26° E 05:13:29 10° NNE visible
27 Oct 3.2 06:42:10 10° SW 06:45:57 41° WNW 06:49:45 10° N visible
27 Oct 6.1 18:07:58 10° NW 18:09:44 13° W 18:11:30 10° WSW visible
28 Oct 5.1 04:55:29 10° SE 04:58:44 25° E 05:01:59 10° NNE visible
28 Oct 3.1 06:30:40 10° SW 06:34:29 44° WNW 06:38:20 10° N visible
29 Oct 5.2 04:44:09 10° SE 04:47:18 23° E 04:50:28 10° NE visible
29 Oct 3.0 06:19:10 10° SSW 06:23:01 48° WNW 06:26:53 10° N visible
30 Oct 5.2 04:32:51 10° SE 04:35:52 21° E 04:38:55 10° NE visible
30 Oct 2.9 06:08:13 14° SSW 06:11:32 52° WNW 06:15:26 10° N visible
